ASA847 KSJC-KSAN

Flight info

Callsign ASA847
Flight time N/A
Altitude 37000
Route SPTNS1 VLREE EBAYE AVE FIM J1 LAX COMIX2
Aircraft A320/M-SDE3FGHIRWY/LB1

Departure

Time 2026-05-06 13:55
Airport Norman Y. Mineta San Jose International Airport (KSJC)

Arrival

Time N/A
Airport San Diego International Airport (KSAN)
Time Latitude Longitude Altitude Speed Heading
2026-05-06 13:27 37.36172 -121.92179 56 ft 0 kts 49°
2026-05-06 13:32 37.36160 -121.92196 52 ft 4 kts 49°
2026-05-06 13:32 37.36145 -121.92218 57 ft 2 kts 48°
2026-05-06 13:32 37.36131 -121.92242 54 ft 4 kts 82°
2026-05-06 13:33 37.36148 -121.92279 55 ft 0 kts 139°
2026-05-06 13:52 37.36134 -121.92263 53 ft 6 kts 139°
2026-05-06 13:52 37.36081 -121.92204 59 ft 14 kts 139°
2026-05-06 13:52 37.35991 -121.92106 53 ft 21 kts 139°
2026-05-06 13:53 37.35869 -121.91970 59 ft 25 kts 139°
2026-05-06 13:53 37.35761 -121.91967 58 ft 19 kts 232°
2026-05-06 13:53 37.35664 -121.92100 65 ft 24 kts 228°
2026-05-06 13:53 37.35639 -121.92294 61 ft 22 kts 304°
2026-05-06 13:54 37.35690 -121.92353 54 ft 15 kts 318°
2026-05-06 13:54 37.35964 -121.92655 58 ft 89 kts 319°
2026-05-06 13:54 37.36589 -121.93339 56 ft 146 kts 319°
2026-05-06 13:54 37.37432 -121.94287 382 ft 169 kts 319°
2026-05-06 13:55 37.38327 -121.95271 1110 ft 171 kts 319°
2026-05-06 13:55 37.39221 -121.96241 1899 ft 171 kts 319°
2026-05-06 13:55 37.40187 -121.97238 2331 ft 191 kts 328°
2026-05-06 13:55 37.41552 -121.97538 2683 ft 217 kts 14°
2026-05-06 13:56 37.42859 -121.96467 3119 ft 241 kts 54°
2026-05-06 13:56 37.43375 -121.94418 3712 ft 258 kts 92°
2026-05-06 13:56 37.42785 -121.92272 4552 ft 269 kts 122°
2026-05-06 13:56 37.41549 -121.90456 4906 ft 276 kts 134°
2026-05-06 13:57 37.40138 -121.88826 4993 ft 276 kts 136°
2026-05-06 13:57 37.38740 -121.87213 4997 ft 276 kts 134°
2026-05-06 13:57 37.37379 -121.85511 5000 ft 275 kts 131°
2026-05-06 13:57 37.36082 -121.83738 4999 ft 275 kts 129°
2026-05-06 13:58 37.34841 -121.81918 4999 ft 275 kts 128°
2026-05-06 13:58 37.33627 -121.80061 5000 ft 275 kts 127°
2026-05-06 13:58 37.32365 -121.78242 5008 ft 277 kts 136°
2026-05-06 13:58 37.30911 -121.76585 5667 ft 283 kts 136°
2026-05-06 13:59 37.29441 -121.74907 6593 ft 289 kts 135°
2026-05-06 13:59 37.27937 -121.73194 7427 ft 294 kts 135°
2026-05-06 13:59 37.26409 -121.71462 8365 ft 296 kts 136°
2026-05-06 13:59 37.24873 -121.69729 9309 ft 298 kts 136°
2026-05-06 14:00 37.23329 -121.67987 10237 ft 301 kts 136°
2026-05-06 14:00 37.21722 -121.66168 10595 ft 324 kts 136°
2026-05-06 14:00 37.20014 -121.64230 10866 ft 346 kts 136°
2026-05-06 14:00 37.18197 -121.62170 11439 ft 356 kts 136°
2026-05-06 14:01 37.16338 -121.60068 12158 ft 362 kts 136°
2026-05-06 14:01 37.14458 -121.57943 12912 ft 366 kts 135°
2026-05-06 14:01 37.12555 -121.55795 13697 ft 371 kts 135°
2026-05-06 14:01 37.10623 -121.53617 14386 ft 375 kts 135°
2026-05-06 14:02 37.08671 -121.51418 15035 ft 379 kts 135°
2026-05-06 14:02 37.06696 -121.49197 15695 ft 383 kts 135°
2026-05-06 14:02 37.04687 -121.46971 16356 ft 387 kts 136°
2026-05-06 14:02 37.02632 -121.44754 16992 ft 392 kts 136°
2026-05-06 14:03 37.00543 -121.42539 17615 ft 396 kts 136°
2026-05-06 14:03 36.98426 -121.40308 18221 ft 400 kts 136°
2026-05-06 14:03 36.96289 -121.38055 18785 ft 404 kts 136°
2026-05-06 14:03 36.94132 -121.35775 19310 ft 407 kts 136°
2026-05-06 14:04 36.91963 -121.33474 19843 ft 411 kts 136°
2026-05-06 14:04 36.89804 -121.31179 20358 ft 414 kts 136°
2026-05-06 14:04 36.87605 -121.28839 20881 ft 417 kts 136°
2026-05-06 14:04 36.85387 -121.26479 21401 ft 420 kts 136°
2026-05-06 14:05 36.83157 -121.24106 21910 ft 423 kts 136°
2026-05-06 14:05 36.80908 -121.21718 22410 ft 426 kts 136°
2026-05-06 14:05 36.78638 -121.19315 22906 ft 429 kts 136°
2026-05-06 14:05 36.76355 -121.16899 23390 ft 432 kts 136°
2026-05-06 14:06 36.74052 -121.14464 23842 ft 435 kts 136°
2026-05-06 14:06 36.71735 -121.12018 24248 ft 438 kts 136°
2026-05-06 14:06 36.69404 -121.09560 24652 ft 440 kts 136°
2026-05-06 14:06 36.67062 -121.07094 25060 ft 442 kts 136°
2026-05-06 14:07 36.64740 -121.04649 25446 ft 444 kts 136°
2026-05-06 14:07 36.62375 -121.02160 25849 ft 446 kts 136°
2026-05-06 14:07 36.60000 -120.99663 26258 ft 448 kts 136°
2026-05-06 14:07 36.57596 -120.97179 26643 ft 451 kts 136°
2026-05-06 14:08 36.55162 -120.94700 27043 ft 453 kts 136°
2026-05-06 14:08 36.52714 -120.92225 27430 ft 455 kts 137°
2026-05-06 14:08 36.50250 -120.89740 27819 ft 457 kts 136°
2026-05-06 14:08 36.47775 -120.87244 28192 ft 459 kts 136°
2026-05-06 14:09 36.45294 -120.84736 28540 ft 461 kts 136°
2026-05-06 14:09 36.42806 -120.82218 28881 ft 463 kts 136°
2026-05-06 14:09 36.40305 -120.79685 29212 ft 465 kts 136°
2026-05-06 14:09 36.37797 -120.77141 29536 ft 466 kts 136°
2026-05-06 14:10 36.35284 -120.74592 29856 ft 468 kts 136°
2026-05-06 14:10 36.32754 -120.72028 30172 ft 470 kts 136°
2026-05-06 14:10 36.30216 -120.69461 30469 ft 471 kts 136°
2026-05-06 14:10 36.27668 -120.66894 30848 ft 471 kts 136°
2026-05-06 14:11 36.25128 -120.64343 31222 ft 470 kts 136°
2026-05-06 14:11 36.22591 -120.61798 31584 ft 469 kts 136°
2026-05-06 14:11 36.20056 -120.59253 31946 ft 469 kts 136°
2026-05-06 14:11 36.17522 -120.56707 32314 ft 469 kts 136°
2026-05-06 14:12 36.15025 -120.54199 32678 ft 468 kts 136°
2026-05-06 14:12 36.12493 -120.51659 33033 ft 468 kts 136°
2026-05-06 14:12 36.09963 -120.49123 33376 ft 468 kts 136°
2026-05-06 14:12 36.07431 -120.46585 33700 ft 468 kts 136°
2026-05-06 14:13 36.04902 -120.44049 34057 ft 468 kts 136°
2026-05-06 14:13 36.02379 -120.41520 34386 ft 467 kts 136°
2026-05-06 14:13 35.99855 -120.38995 34701 ft 467 kts 136°
2026-05-06 14:13 35.97329 -120.36468 34997 ft 467 kts 136°
2026-05-06 14:14 35.94805 -120.33946 35309 ft 466 kts 136°
2026-05-06 14:14 35.92286 -120.31436 35600 ft 466 kts 136°
2026-05-06 14:14 35.90578 -120.29738 35779 ft 466 kts 136°
2026-05-06 14:14 35.88089 -120.27266 36066 ft 465 kts 136°
2026-05-06 14:15 35.85681 -120.24563 36338 ft 459 kts 128°
2026-05-06 14:15 35.83461 -120.21733 36600 ft 459 kts 128°
2026-05-06 14:15 35.81279 -120.18944 36860 ft 458 kts 128°
2026-05-06 14:15 35.79070 -120.16119 37097 ft 458 kts 128°
2026-05-06 14:16 35.74636 -120.10469 37197 ft 458 kts 129°
2026-05-06 14:16 35.70205 -120.04845 37178 ft 457 kts 129°
2026-05-06 14:17 35.65770 -119.99228 37180 ft 458 kts 130°
2026-05-06 14:17 35.60688 -119.94369 37183 ft 465 kts 140°
2026-05-06 14:18 35.55398 -119.89816 37175 ft 464 kts 140°
2026-05-06 14:18 35.50105 -119.85251 37185 ft 464 kts 140°
2026-05-06 14:19 35.44818 -119.80686 37191 ft 465 kts 140°
2026-05-06 14:19 35.39567 -119.76151 37191 ft 465 kts 140°
2026-05-06 14:20 35.34282 -119.71594 37192 ft 464 kts 140°
2026-05-06 14:20 35.28987 -119.67058 37194 ft 464 kts 140°
2026-05-06 14:21 35.23698 -119.62529 37195 ft 464 kts 140°
2026-05-06 14:21 35.18406 -119.57999 37190 ft 464 kts 140°
2026-05-06 14:22 35.13122 -119.53484 37201 ft 463 kts 140°
2026-05-06 14:22 35.07841 -119.48978 37194 ft 463 kts 140°
2026-05-06 14:23 35.02550 -119.44474 37188 ft 463 kts 140°
2026-05-06 14:23 34.97304 -119.40012 37183 ft 463 kts 140°